OCN4RD GCFV-EDDM

Flight info

Callsign OCN4RD
Flight time 3h 43m
Altitude 36000
Route KORAL UG5 SONSO DCT ADUBI DCT VJF L27 MAR DCT ALCOL DCT LOGRO DCT ETANA DCT VTB DCT PALIO DCT SEGRE DCT YAKXU DCT RONNY DCT TOPTU DCT TOU DCT GAI DCT MEN DCT NINUN DCT LATAM DCT ETREK DCT LTP DCT SOPLO DCT OMASI DCT KINNI DCT LAMUR DCT KORED DCT NUNRI T103 BETOS
Aircraft A320/M-SDE2E3FGIJ1LORWXYZ/HB1

Departure

Time 2026-05-06 13:50
Airport Fuerteventura Airport (GCFV)

Arrival

Time 2026-05-06 17:34
Airport Munich Airport (EDDM)
Time Latitude Longitude Altitude Speed Heading
2026-05-06 13:40 28.45271 -13.86837 95 ft 0 kts 271°
2026-05-06 13:43 28.45270 -13.86820 95 ft 4 kts 269°
2026-05-06 13:43 28.45272 -13.86790 95 ft 4 kts 262°
2026-05-06 13:43 28.45277 -13.86760 94 ft 4 kts 246°
2026-05-06 13:43 28.45291 -13.86739 94 ft 4 kts 193°
2026-05-06 13:44 28.45301 -13.86737 96 ft 1 kts 181°
2026-05-06 13:45 28.45247 -13.86739 95 ft 17 kts 182°
2026-05-06 13:46 28.45124 -13.86734 94 ft 17 kts 158°
2026-05-06 13:46 28.45096 -13.86615 94 ft 17 kts 94°
2026-05-06 13:46 28.45001 -13.86577 93 ft 16 kts 185°
2026-05-06 13:46 28.44855 -13.86582 95 ft 28 kts 181°
2026-05-06 13:47 28.44662 -13.86590 83 ft 27 kts 182°
2026-05-06 13:47 28.44492 -13.86595 71 ft 22 kts 181°
2026-05-06 13:47 28.44340 -13.86599 63 ft 22 kts 183°
2026-05-06 13:47 28.44189 -13.86604 61 ft 22 kts 181°
2026-05-06 13:48 28.44033 -13.86609 55 ft 23 kts 181°
2026-05-06 13:48 28.43869 -13.86614 48 ft 25 kts 181°
2026-05-06 13:48 28.43691 -13.86621 43 ft 26 kts 181°
2026-05-06 13:48 28.43497 -13.86625 38 ft 28 kts 182°
2026-05-06 13:49 28.43349 -13.86631 35 ft 21 kts 181°
2026-05-06 13:49 28.43302 -13.86576 33 ft 12 kts 94°
2026-05-06 13:49 28.43316 -13.86466 35 ft 14 kts 54°
2026-05-06 13:49 28.43422 -13.86437 35 ft 29 kts
2026-05-06 13:50 28.43876 -13.86422 34 ft 98 kts
2026-05-06 13:50 28.44735 -13.86394 63 ft 146 kts
2026-05-06 13:50 28.45834 -13.86348 427 ft 163 kts
2026-05-06 13:50 28.46978 -13.86206 1116 ft 167 kts 20°
2026-05-06 13:51 28.48066 -13.85618 1496 ft 186 kts 30°
2026-05-06 13:51 28.49277 -13.84872 1832 ft 210 kts 29°
2026-05-06 13:51 28.50649 -13.84064 2243 ft 234 kts 27°
2026-05-06 13:51 28.52140 -13.83200 2927 ft 245 kts 26°
2026-05-06 13:52 28.53680 -13.82308 3741 ft 251 kts 25°
2026-05-06 13:52 28.55248 -13.81395 4592 ft 256 kts 25°
2026-05-06 13:52 28.56853 -13.80458 5359 ft 263 kts 24°
2026-05-06 13:52 28.58501 -13.79495 6087 ft 270 kts 24°
2026-05-06 13:53 28.60190 -13.78506 6809 ft 276 kts 24°
2026-05-06 13:53 28.61915 -13.77493 7521 ft 282 kts 24°
2026-05-06 13:53 28.63673 -13.76459 8241 ft 287 kts 24°
2026-05-06 13:53 28.65441 -13.75419 8963 ft 292 kts 24°
2026-05-06 13:54 28.67262 -13.74347 9692 ft 297 kts 24°
2026-05-06 13:54 28.69119 -13.73254 10315 ft 306 kts 23°
2026-05-06 13:54 28.71106 -13.72162 10516 ft 329 kts 21°
2026-05-06 13:54 28.73262 -13.71059 10702 ft 350 kts 20°
2026-05-06 13:55 28.75525 -13.69932 11202 ft 359 kts 20°
2026-05-06 13:55 28.77832 -13.68785 11832 ft 363 kts 20°
2026-05-06 13:55 28.80161 -13.67620 12479 ft 368 kts 21°
2026-05-06 13:55 28.82512 -13.66433 13126 ft 372 kts 21°
2026-05-06 13:56 28.84887 -13.65226 13771 ft 376 kts 21°
2026-05-06 13:56 28.87280 -13.64003 14374 ft 378 kts 21°
2026-05-06 13:56 28.89692 -13.62765 14950 ft 382 kts 21°
2026-05-06 13:56 28.92127 -13.61514 15514 ft 386 kts 21°
2026-05-06 13:57 28.94587 -13.60254 16061 ft 389 kts 20°
2026-05-06 13:57 28.97097 -13.59063 16615 ft 392 kts 18°
2026-05-06 13:57 28.99662 -13.57965 17149 ft 395 kts 16°
2026-05-06 13:57 29.02265 -13.56916 17693 ft 398 kts 15°
2026-05-06 13:58 29.04903 -13.55875 18221 ft 402 kts 15°
2026-05-06 13:58 29.07559 -13.54820 18697 ft 406 kts 16°
2026-05-06 13:58 29.10231 -13.53739 19166 ft 409 kts 16°
2026-05-06 13:58 29.12907 -13.52596 19640 ft 414 kts 21°
2026-05-06 13:59 29.15435 -13.50979 20146 ft 420 kts 32°
2026-05-06 13:59 29.17685 -13.48822 20641 ft 425 kts 43°
2026-05-06 13:59 29.19583 -13.46200 21043 ft 431 kts 53°
2026-05-06 13:59 29.21300 -13.43370 21463 ft 434 kts 53°
2026-05-06 14:00 29.23029 -13.40523 21889 ft 437 kts 53°
2026-05-06 14:00 29.24772 -13.37657 22315 ft 440 kts 53°
2026-05-06 14:00 29.26529 -13.34774 22723 ft 443 kts 53°
2026-05-06 14:00 29.28297 -13.31873 23144 ft 446 kts 53°
2026-05-06 14:01 29.30084 -13.28952 23557 ft 448 kts 53°
2026-05-06 14:01 29.31883 -13.26022 23895 ft 451 kts 53°
2026-05-06 14:01 29.33689 -13.23072 24021 ft 453 kts 53°
2026-05-06 14:01 29.35495 -13.20113 24048 ft 454 kts 53°
2026-05-06 14:02 29.37307 -13.17138 24367 ft 456 kts 53°
2026-05-06 14:02 29.39127 -13.14145 24689 ft 459 kts 54°
2026-05-06 14:02 29.40963 -13.11128 24916 ft 465 kts 54°
2026-05-06 14:02 29.42824 -13.08068 25108 ft 470 kts 54°
2026-05-06 14:03 29.44701 -13.04975 25365 ft 474 kts 54°
2026-05-06 14:03 29.46570 -13.01893 25641 ft 478 kts 54°
2026-05-06 14:03 29.48472 -12.98753 25977 ft 479 kts 54°
2026-05-06 14:03 29.50400 -12.95570 26365 ft 480 kts 54°
2026-05-06 14:04 29.52311 -12.92417 26672 ft 482 kts 54°
2026-05-06 14:04 29.54230 -12.89245 26969 ft 485 kts 54°
2026-05-06 14:04 29.56134 -12.86098 27251 ft 488 kts 54°
2026-05-06 14:04 29.58073 -12.82887 27524 ft 491 kts 54°
2026-05-06 14:05 29.60048 -12.79611 27803 ft 494 kts 54°
2026-05-06 14:05 29.62008 -12.76359 28057 ft 497 kts 54°
2026-05-06 14:05 29.63963 -12.73119 28198 ft 503 kts 54°
2026-05-06 14:05 29.65970 -12.69793 28330 ft 509 kts 54°
2026-05-06 14:06 29.67995 -12.66430 28508 ft 514 kts 54°
2026-05-06 14:06 29.70032 -12.63038 28727 ft 517 kts 55°
2026-05-06 14:06 29.72081 -12.59617 28950 ft 520 kts 55°
2026-05-06 14:06 29.74137 -12.56182 29172 ft 523 kts 55°
2026-05-06 14:07 29.76197 -12.52721 29382 ft 526 kts 55°
2026-05-06 14:07 29.78261 -12.49235 29613 ft 528 kts 55°
2026-05-06 14:07 29.80332 -12.45728 29829 ft 531 kts 56°
2026-05-06 14:07 29.82402 -12.42213 30265 ft 527 kts 55°
2026-05-06 14:08 29.84443 -12.38744 30751 ft 523 kts 56°
2026-05-06 14:08 29.86492 -12.35263 30871 ft 527 kts 56°
2026-05-06 14:08 29.88561 -12.31758 30994 ft 531 kts 56°
2026-05-06 14:08 29.90645 -12.28231 31174 ft 533 kts 56°
2026-05-06 14:09 29.92732 -12.24693 31419 ft 534 kts 56°
2026-05-06 14:09 29.94820 -12.21148 31680 ft 535 kts 56°
2026-05-06 14:09 29.96908 -12.17589 31927 ft 535 kts 56°
2026-05-06 14:09 29.98996 -12.14031 32178 ft 536 kts 55°
2026-05-06 14:10 30.01314 -12.10668 32421 ft 536 kts 46°
2026-05-06 14:10 30.03989 -12.07686 32667 ft 534 kts 37°
2026-05-06 14:10 30.06894 -12.05017 32900 ft 534 kts 35°
2026-05-06 14:10 30.09817 -12.02360 33085 ft 536 kts 35°
2026-05-06 14:11 30.12757 -11.99684 33209 ft 540 kts 35°
2026-05-06 14:11 30.15712 -11.96990 33381 ft 542 kts 36°
2026-05-06 14:11 30.18672 -11.94285 33616 ft 543 kts 36°
2026-05-06 14:11 30.21636 -11.91574 33868 ft 543 kts 36°
2026-05-06 14:12 30.24600 -11.88861 34113 ft 544 kts 36°
2026-05-06 14:12 30.27561 -11.86143 34356 ft 543 kts 36°
2026-05-06 14:12 30.30524 -11.83422 34617 ft 542 kts 36°
2026-05-06 14:12 30.33474 -11.80707 34876 ft 541 kts 36°
2026-05-06 14:13 30.36417 -11.77994 35134 ft 540 kts 36°
2026-05-06 14:13 30.39354 -11.75288 35378 ft 539 kts 36°
2026-05-06 14:13 30.42286 -11.72587 35626 ft 538 kts 36°
2026-05-06 14:13 30.45208 -11.69893 35935 ft 535 kts 35°
2026-05-06 14:14 30.50998 -11.64555 36022 ft 530 kts 35°
2026-05-06 14:14 30.56756 -11.59245 36019 ft 528 kts 35°
2026-05-06 14:15 30.62508 -11.53921 36019 ft 528 kts 36°
2026-05-06 14:15 30.68215 -11.48633 36021 ft 528 kts 36°
2026-05-06 14:16 30.73959 -11.43304 36055 ft 528 kts 36°
2026-05-06 14:16 30.79651 -11.38009 36016 ft 518 kts 36°
2026-05-06 14:17 30.85257 -11.32784 36021 ft 515 kts 36°
2026-05-06 14:17 30.90882 -11.27542 36019 ft 522 kts 35°
2026-05-06 14:18 30.96584 -11.22233 36018 ft 526 kts 36°
2026-05-06 14:18 31.02297 -11.16888 36022 ft 527 kts 36°
2026-05-06 14:19 31.07071 -11.12412 36024 ft 522 kts 36°
2026-05-06 14:19 31.12671 -11.07149 36011 ft 515 kts 36°
2026-05-06 14:20 31.18243 -11.01909 36011 ft 513 kts 36°
2026-05-06 14:20 31.23810 -10.96684 36013 ft 513 kts 36°
2026-05-06 14:21 31.29383 -10.91442 36012 ft 518 kts 36°
2026-05-06 14:21 31.35013 -10.86131 36028 ft 521 kts 36°
2026-05-06 14:22 31.40627 -10.80812 36039 ft 518 kts 36°
2026-05-06 14:22 31.46215 -10.75517 36036 ft 515 kts 36°
2026-05-06 14:23 31.51775 -10.70238 36033 ft 514 kts 36°
2026-05-06 14:23 31.57322 -10.64966 36029 ft 513 kts 36°
2026-05-06 14:24 31.62859 -10.59696 36033 ft 512 kts 36°
2026-05-06 14:24 31.68387 -10.54428 36036 ft 511 kts 36°
2026-05-06 14:25 31.73905 -10.49162 36027 ft 511 kts 36°
2026-05-06 14:25 31.79424 -10.43890 36026 ft 511 kts 36°
2026-05-06 14:26 31.84896 -10.38653 36021 ft 511 kts 36°
2026-05-06 14:26 31.90401 -10.33376 36018 ft 510 kts 36°
2026-05-06 14:27 31.95902 -10.28099 36044 ft 510 kts 36°
2026-05-06 14:27 32.01381 -10.22825 36035 ft 508 kts 37°
2026-05-06 14:28 32.06843 -10.17555 36013 ft 507 kts 36°
2026-05-06 14:28 32.12310 -10.12279 35992 ft 508 kts 36°
2026-05-06 14:29 32.17792 -10.06988 35988 ft 509 kts 36°
2026-05-06 14:29 32.23269 -10.01680 36025 ft 510 kts 37°
2026-05-06 14:30 32.28741 -9.96370 36027 ft 509 kts 37°
2026-05-06 14:30 32.34200 -9.91061 36026 ft 508 kts 37°
2026-05-06 14:31 32.39654 -9.85755 36025 ft 507 kts 37°
2026-05-06 14:31 32.45108 -9.80447 35998 ft 508 kts 37°
2026-05-06 14:32 32.50562 -9.75122 35986 ft 509 kts 37°
2026-05-06 14:32 32.56024 -9.69787 36019 ft 509 kts 37°
2026-05-06 14:33 32.61436 -9.64481 36014 ft 508 kts 37°
2026-05-06 14:33 32.66874 -9.59136 36011 ft 507 kts 37°
2026-05-06 14:34 32.72314 -9.53800 36010 ft 507 kts 37°
2026-05-06 14:34 32.77751 -9.48454 36004 ft 507 kts 37°
2026-05-06 14:35 32.83176 -9.43107 36018 ft 507 kts 37°
2026-05-06 14:35 32.88607 -9.37753 36001 ft 508 kts 37°
2026-05-06 14:36 32.94033 -9.32373 35999 ft 508 kts 37°
2026-05-06 14:36 32.99457 -9.26988 35996 ft 508 kts 37°
2026-05-06 14:37 33.04889 -9.21606 35996 ft 508 kts 37°
2026-05-06 14:37 33.10325 -9.16211 35997 ft 508 kts 37°
2026-05-06 14:38 33.15754 -9.10809 36001 ft 508 kts 37°
2026-05-06 14:38 33.21180 -9.05391 35967 ft 509 kts 37°
2026-05-06 14:39 33.26622 -8.99955 35969 ft 511 kts 37°
2026-05-06 14:39 33.32075 -8.94501 35984 ft 512 kts 37°
2026-05-06 14:40 33.37533 -8.89027 36011 ft 512 kts 37°
2026-05-06 14:40 33.42995 -8.83543 36014 ft 512 kts 37°
2026-05-06 14:41 33.48446 -8.78071 36014 ft 511 kts 37°
2026-05-06 14:41 33.53890 -8.72598 36011 ft 511 kts 37°
2026-05-06 14:42 33.59322 -8.67103 35991 ft 511 kts 37°
2026-05-06 14:42 33.64766 -8.61593 35987 ft 512 kts 37°
2026-05-06 14:43 33.70214 -8.56072 36014 ft 513 kts 37°
2026-05-06 14:43 33.75668 -8.50550 36011 ft 512 kts 37°
2026-05-06 14:44 33.81070 -8.45060 36009 ft 512 kts 37°
2026-05-06 14:45 33.89220 -8.36758 36007 ft 512 kts 37°
2026-05-06 14:45 33.94652 -8.31217 36020 ft 512 kts 37°
2026-05-06 14:46 34.00082 -8.25657 36015 ft 512 kts 37°
2026-05-06 14:46 34.05516 -8.20093 36006 ft 513 kts 37°
2026-05-06 14:47 34.10953 -8.14516 35999 ft 513 kts 37°
2026-05-06 14:47 34.16388 -8.08941 36001 ft 513 kts 37°
2026-05-06 14:48 34.21823 -8.03360 36026 ft 513 kts 37°
2026-05-06 14:48 34.27246 -7.97768 36018 ft 512 kts 37°
2026-05-06 14:49 34.32651 -7.92172 36010 ft 511 kts 37°
2026-05-06 14:49 34.38050 -7.86584 36006 ft 511 kts 37°
2026-05-06 14:50 34.43446 -7.80985 36003 ft 510 kts 38°
2026-05-06 14:50 34.48832 -7.75389 36001 ft 510 kts 37°
2026-05-06 14:51 34.54201 -7.69808 36002 ft 507 kts 37°
2026-05-06 14:51 34.59515 -7.64275 36002 ft 507 kts 37°
2026-05-06 14:52 34.64860 -7.58703 35986 ft 507 kts 38°
2026-05-06 14:52 34.70205 -7.53109 35973 ft 508 kts 38°
2026-05-06 14:53 34.75565 -7.47488 35971 ft 509 kts 38°
2026-05-06 14:53 34.80928 -7.41867 36005 ft 509 kts 38°
2026-05-06 14:54 34.86277 -7.36239 36004 ft 508 kts 38°
2026-05-06 14:54 34.91616 -7.30612 35998 ft 507 kts 38°
2026-05-06 14:55 34.96950 -7.24985 35993 ft 507 kts 38°
2026-05-06 14:55 35.02278 -7.19350 35973 ft 507 kts 38°
2026-05-06 14:56 35.07617 -7.13697 35995 ft 508 kts 38°
2026-05-06 14:56 35.12953 -7.08043 35991 ft 508 kts 38°
2026-05-06 14:57 35.18283 -7.02376 35986 ft 508 kts 38°
2026-05-06 14:57 35.23611 -6.96703 35984 ft 508 kts 38°
2026-05-06 14:58 35.28901 -6.91060 35981 ft 508 kts 38°
2026-05-06 14:58 35.34229 -6.85371 36001 ft 507 kts 38°
2026-05-06 14:59 35.39544 -6.79686 35973 ft 507 kts 38°
2026-05-06 14:59 35.44859 -6.73984 35965 ft 508 kts 39°
2026-05-06 15:00 35.50175 -6.68267 35961 ft 508 kts 39°
2026-05-06 15:00 35.55491 -6.62536 35962 ft 509 kts 39°
2026-05-06 15:01 35.60811 -6.56804 36000 ft 508 kts 39°
2026-05-06 15:01 35.66125 -6.51074 35991 ft 507 kts 39°
2026-05-06 15:02 35.71416 -6.45351 35965 ft 506 kts 39°
2026-05-06 15:02 35.76700 -6.39615 35952 ft 507 kts 39°
2026-05-06 15:03 35.81987 -6.33866 35943 ft 507 kts 39°
2026-05-06 15:03 35.87631 -6.28717 35944 ft 505 kts 31°
2026-05-06 15:04 35.93407 -6.23787 35942 ft 505 kts 31°
2026-05-06 15:04 35.99195 -6.18847 35948 ft 506 kts 31°
2026-05-06 15:05 36.03998 -6.14735 35954 ft 506 kts 31°
2026-05-06 15:05 36.09777 -6.09768 35983 ft 506 kts 32°
2026-05-06 15:06 36.15551 -6.04791 35959 ft 506 kts 32°
2026-05-06 15:06 36.21333 -5.99804 35951 ft 506 kts 32°
2026-05-06 15:07 36.26688 -5.94124 35945 ft 510 kts 44°
2026-05-06 15:07 36.31670 -5.87861 35927 ft 510 kts 43°
2026-05-06 15:08 36.36660 -5.81616 35947 ft 510 kts 43°
2026-05-06 15:08 36.41647 -5.75365 35937 ft 510 kts 43°
2026-05-06 15:09 36.46590 -5.69140 35918 ft 509 kts 44°
2026-05-06 15:09 36.51568 -5.62860 35910 ft 510 kts 44°
2026-05-06 15:10 36.56551 -5.56574 35898 ft 511 kts 44°
2026-05-06 15:10 36.61532 -5.50267 35899 ft 511 kts 44°
2026-05-06 15:11 36.66510 -5.43949 35927 ft 511 kts 44°
2026-05-06 15:11 36.71485 -5.37626 35921 ft 511 kts 44°
2026-05-06 15:12 36.76449 -5.31302 35909 ft 510 kts 44°
2026-05-06 15:12 36.81415 -5.24963 35909 ft 511 kts 44°
2026-05-06 15:13 36.86380 -5.18613 35911 ft 511 kts 44°
2026-05-06 15:13 36.91348 -5.12249 35929 ft 511 kts 44°
2026-05-06 15:14 36.96304 -5.05895 35922 ft 510 kts 44°
2026-05-06 15:14 37.01249 -4.99537 35913 ft 510 kts 44°
2026-05-06 15:15 37.06645 -4.93884 35908 ft 503 kts 27°
2026-05-06 15:15 37.12906 -4.90157 35903 ft 497 kts 17°
2026-05-06 15:16 37.19309 -4.86843 35916 ft 498 kts 18°
2026-05-06 15:16 37.25700 -4.83496 35912 ft 498 kts 18°
2026-05-06 15:17 37.32086 -4.80137 35911 ft 498 kts 18°
2026-05-06 15:17 37.38478 -4.76786 35936 ft 498 kts 18°
2026-05-06 15:18 37.44828 -4.73455 35926 ft 497 kts 18°
2026-05-06 15:18 37.51209 -4.70099 35919 ft 497 kts 18°
2026-05-06 15:19 37.57588 -4.66743 35911 ft 496 kts 18°
2026-05-06 15:19 37.63954 -4.63382 35921 ft 496 kts 18°
2026-05-06 15:20 37.70311 -4.60008 35918 ft 495 kts 18°
2026-05-06 15:20 37.76660 -4.56635 35900 ft 495 kts 18°
2026-05-06 15:21 37.83011 -4.53263 35891 ft 495 kts 18°
2026-05-06 15:21 37.89365 -4.49889 35913 ft 495 kts 18°
2026-05-06 15:22 37.95719 -4.46508 35907 ft 495 kts 18°
2026-05-06 15:22 38.02056 -4.43119 35903 ft 494 kts 18°
2026-05-06 15:23 38.08390 -4.39725 35897 ft 494 kts 18°
2026-05-06 15:23 38.14722 -4.36327 35914 ft 494 kts 18°
2026-05-06 15:24 38.21052 -4.32927 35912 ft 493 kts 18°
2026-05-06 15:24 38.27364 -4.29526 35905 ft 492 kts 18°
2026-05-06 15:25 38.33667 -4.26125 35899 ft 492 kts 18°
2026-05-06 15:25 38.39964 -4.22715 35898 ft 492 kts 18°
2026-05-06 15:26 38.46261 -4.19313 35887 ft 491 kts 18°
2026-05-06 15:26 38.52554 -4.15907 35886 ft 491 kts 18°
2026-05-06 15:27 38.58801 -4.12512 35910 ft 491 kts 18°
2026-05-06 15:27 38.65086 -4.09084 35906 ft 491 kts 19°
2026-05-06 15:28 38.71370 -4.05654 35908 ft 490 kts 19°
2026-05-06 15:28 38.77645 -4.02229 35901 ft 490 kts 18°
2026-05-06 15:29 38.83915 -3.98799 35926 ft 490 kts 19°
2026-05-06 15:29 38.90178 -3.95368 35923 ft 489 kts 19°
2026-05-06 15:30 38.96431 -3.91929 35915 ft 489 kts 19°
2026-05-06 15:30 39.02681 -3.88480 35920 ft 488 kts 19°
2026-05-06 15:31 39.08917 -3.85030 35940 ft 487 kts 19°
2026-05-06 15:31 39.15136 -3.81589 35915 ft 486 kts 19°
2026-05-06 15:32 39.24450 -3.76439 35896 ft 486 kts 19°
2026-05-06 15:32 39.30662 -3.72997 35917 ft 486 kts 19°
2026-05-06 15:33 39.36823 -3.69563 35926 ft 485 kts 19°
2026-05-06 15:33 39.43017 -3.66096 35923 ft 484 kts 19°
2026-05-06 15:34 39.49198 -3.62645 35922 ft 484 kts 19°
2026-05-06 15:34 39.55374 -3.59193 35944 ft 483 kts 19°
2026-05-06 15:35 39.61539 -3.55742 35939 ft 482 kts 19°
2026-05-06 15:35 39.67688 -3.52282 35937 ft 481 kts 19°
2026-05-06 15:36 39.73826 -3.48813 35938 ft 481 kts 19°
2026-05-06 15:36 39.79825 -3.44930 35949 ft 485 kts 30°
2026-05-06 15:37 39.85451 -3.40095 35935 ft 484 kts 30°
2026-05-06 15:37 39.91074 -3.35260 35935 ft 484 kts 30°
2026-05-06 15:38 39.96693 -3.30418 35929 ft 484 kts 30°
2026-05-06 15:38 40.02311 -3.25581 35954 ft 484 kts 30°
2026-05-06 15:39 40.07914 -3.20741 35951 ft 482 kts 30°
2026-05-06 15:39 40.13507 -3.15889 35951 ft 482 kts 30°
2026-05-06 15:40 40.19093 -3.11046 35950 ft 482 kts 30°
2026-05-06 15:40 40.24674 -3.06195 35960 ft 482 kts 31°
2026-05-06 15:41 40.30250 -3.01339 35950 ft 481 kts 30°
2026-05-06 15:41 40.35818 -2.96478 35947 ft 481 kts 31°
2026-05-06 15:42 40.41379 -2.91609 35943 ft 480 kts 31°
2026-05-06 15:42 40.46898 -2.86770 35961 ft 480 kts 31°
2026-05-06 15:43 40.52456 -2.81888 35955 ft 480 kts 31°
2026-05-06 15:43 40.58002 -2.77006 35944 ft 480 kts 31°
2026-05-06 15:44 40.63538 -2.72114 35941 ft 479 kts 31°
2026-05-06 15:44 40.69073 -2.67218 35942 ft 479 kts 31°
2026-05-06 15:45 40.74606 -2.62314 35926 ft 479 kts 31°
2026-05-06 15:45 40.80143 -2.57401 35927 ft 480 kts 31°
2026-05-06 15:46 40.85686 -2.52475 35924 ft 480 kts 31°
2026-05-06 15:46 40.91221 -2.47545 35948 ft 480 kts 31°
2026-05-06 15:47 40.96742 -2.42609 35955 ft 479 kts 31°
2026-05-06 15:47 41.02251 -2.37667 35953 ft 478 kts 32°
2026-05-06 15:48 41.07584 -2.32359 35952 ft 480 kts 36°
2026-05-06 15:48 41.12691 -2.26758 35955 ft 480 kts 37°
2026-05-06 15:49 41.17839 -2.21101 35951 ft 480 kts 36°
2026-05-06 15:49 41.23032 -2.15540 35946 ft 479 kts 36°
2026-05-06 15:50 41.28244 -2.10017 35943 ft 479 kts 36°
2026-05-06 15:50 41.33450 -2.04479 35964 ft 479 kts 36°
2026-05-06 15:51 41.38648 -1.98908 35958 ft 479 kts 36°
2026-05-06 15:51 41.43831 -1.93327 35960 ft 479 kts 36°
2026-05-06 15:52 41.49014 -1.87744 35949 ft 479 kts 36°
2026-05-06 15:52 41.54197 -1.82149 35947 ft 480 kts 36°
2026-05-06 15:53 41.59380 -1.76538 35967 ft 480 kts 36°
2026-05-06 15:53 41.64526 -1.70959 35962 ft 479 kts 36°
2026-05-06 15:54 41.69700 -1.65332 35969 ft 479 kts 36°
2026-05-06 15:54 41.74876 -1.59706 35963 ft 479 kts 36°
2026-05-06 15:55 41.80042 -1.54085 35992 ft 478 kts 36°
2026-05-06 15:55 41.85190 -1.48453 35982 ft 478 kts 36°
2026-05-06 15:56 41.90334 -1.42810 35973 ft 478 kts 36°
2026-05-06 15:56 41.94609 -1.38116 35965 ft 478 kts 36°
2026-05-06 15:57 41.99758 -1.32452 35976 ft 478 kts 36°
2026-05-06 15:57 42.04901 -1.26791 35977 ft 478 kts 36°
2026-05-06 15:58 42.10034 -1.21106 35984 ft 478 kts 36°
2026-05-06 15:58 42.15163 -1.15408 35974 ft 478 kts 36°
2026-05-06 15:59 42.20304 -1.09715 35990 ft 479 kts 36°
2026-05-06 15:59 42.25455 -1.03995 35978 ft 479 kts 36°
2026-05-06 16:00 42.30563 -0.98304 35974 ft 479 kts 36°
2026-05-06 16:00 42.35703 -0.92567 35972 ft 479 kts 36°
2026-05-06 16:01 42.40836 -0.86810 35985 ft 479 kts 37°
2026-05-06 16:01 42.45388 -0.80178 35981 ft 484 kts 50°
2026-05-06 16:02 42.49491 -0.72953 35959 ft 484 kts 50°
2026-05-06 16:02 42.53598 -0.65713 35959 ft 484 kts 50°
2026-05-06 16:03 42.57700 -0.58466 35950 ft 485 kts 50°
2026-05-06 16:03 42.61802 -0.51206 35981 ft 485 kts 50°
2026-05-06 16:04 42.65901 -0.43941 35978 ft 484 kts 50°
2026-05-06 16:04 42.69987 -0.36676 35990 ft 484 kts 50°
2026-05-06 16:05 42.74057 -0.29404 35983 ft 483 kts 51°
2026-05-06 16:05 42.78129 -0.22131 35989 ft 482 kts 51°
2026-05-06 16:06 42.82204 -0.14956 35984 ft 482 kts 49°
2026-05-06 16:06 42.86497 -0.07875 35993 ft 481 kts 47°
2026-05-06 16:07 42.90797 -0.00873 36003 ft 482 kts 48°
2026-05-06 16:07 42.95037 0.06150 35984 ft 483 kts 49°
2026-05-06 16:08 42.99279 0.13275 35976 ft 484 kts 49°
2026-05-06 16:08 43.03520 0.20424 36007 ft 484 kts 49°
2026-05-06 16:09 43.07764 0.27577 36014 ft 483 kts 49°
2026-05-06 16:09 43.11996 0.34715 36012 ft 483 kts 49°
2026-05-06 16:10 43.16226 0.41853 36003 ft 483 kts 49°
2026-05-06 16:10 43.20455 0.49017 35976 ft 484 kts 49°
2026-05-06 16:11 43.24689 0.56211 35993 ft 484 kts 49°
2026-05-06 16:11 43.28911 0.63406 35990 ft 484 kts 49°
2026-05-06 16:12 43.33128 0.70597 35987 ft 483 kts 49°
2026-05-06 16:12 43.37336 0.77788 35968 ft 483 kts 49°
2026-05-06 16:13 43.41510 0.84954 35948 ft 484 kts 49°
2026-05-06 16:13 43.45714 0.92190 35968 ft 484 kts 50°
2026-05-06 16:14 43.49913 0.99424 35974 ft 483 kts 50°
2026-05-06 16:14 43.54105 1.06663 35969 ft 483 kts 50°
2026-05-06 16:15 43.58279 1.13905 35958 ft 482 kts 50°
2026-05-06 16:15 43.62456 1.21153 35961 ft 483 kts 50°
2026-05-06 16:16 43.66635 1.28421 35977 ft 483 kts 50°
2026-05-06 16:16 43.70756 1.35748 35975 ft 483 kts 52°
2026-05-06 16:17 43.74725 1.43240 35973 ft 483 kts 53°
2026-05-06 16:17 43.78667 1.50775 35963 ft 483 kts 52°
2026-05-06 16:18 43.82636 1.58279 35957 ft 483 kts 52°
2026-05-06 16:18 43.86623 1.65781 35944 ft 484 kts 52°
2026-05-06 16:19 43.90608 1.73287 35933 ft 483 kts 52°
2026-05-06 16:19 43.94582 1.80809 35931 ft 483 kts 52°
2026-05-06 16:20 43.98470 1.88346 35929 ft 484 kts 54°
2026-05-06 16:20 44.02278 1.96060 35936 ft 484 kts 55°
2026-05-06 16:21 44.06065 2.03796 35936 ft 484 kts 54°
2026-05-06 16:21 44.09879 2.11504 35937 ft 484 kts 54°
2026-05-06 16:22 44.13699 2.19207 35931 ft 483 kts 54°
2026-05-06 16:22 44.17518 2.26913 35938 ft 484 kts 54°
2026-05-06 16:23 44.21330 2.34648 35932 ft 484 kts 54°
2026-05-06 16:23 44.25127 2.42393 35930 ft 484 kts 55°
2026-05-06 16:24 44.28915 2.50146 35923 ft 484 kts 55°
2026-05-06 16:24 44.32699 2.57905 35939 ft 483 kts 55°
2026-05-06 16:25 44.36456 2.65619 35932 ft 483 kts 55°
2026-05-06 16:25 44.40234 2.73396 35938 ft 484 kts 55°
2026-05-06 16:26 44.44010 2.81195 35925 ft 484 kts 55°
2026-05-06 16:26 44.47777 2.88995 35933 ft 484 kts 55°
2026-05-06 16:27 44.51539 2.96802 35919 ft 483 kts 56°
2026-05-06 16:27 44.55289 3.04623 35918 ft 484 kts 56°
2026-05-06 16:28 44.59035 3.12460 35920 ft 484 kts 56°
2026-05-06 16:28 44.62690 3.20393 35912 ft 484 kts 59°
2026-05-06 16:29 44.65999 3.28637 35903 ft 484 kts 62°
2026-05-06 16:29 44.69190 3.36969 35898 ft 484 kts 62°
2026-05-06 16:30 44.71886 3.43862 35898 ft 484 kts 61°
2026-05-06 16:30 44.75719 3.53468 35889 ft 484 kts 60°
2026-05-06 16:31 44.79025 3.61729 35891 ft 484 kts 60°
2026-05-06 16:31 44.82315 3.70006 35892 ft 484 kts 61°
2026-05-06 16:32 44.85588 3.78304 35888 ft 485 kts 61°
2026-05-06 16:32 44.88850 3.86628 35881 ft 485 kts 61°
2026-05-06 16:33 44.92116 3.94951 35887 ft 485 kts 61°
2026-05-06 16:34 44.97011 4.07451 35894 ft 485 kts 61°
2026-05-06 16:34 45.00255 4.15794 35910 ft 484 kts 61°
2026-05-06 16:35 45.03487 4.24144 35888 ft 484 kts 61°
2026-05-06 16:35 45.06717 4.32509 35888 ft 485 kts 61°
2026-05-06 16:36 45.09960 4.40893 35892 ft 485 kts 61°
2026-05-06 16:36 45.13196 4.49282 35907 ft 485 kts 62°
2026-05-06 16:37 45.16412 4.57684 35917 ft 485 kts 62°
2026-05-06 16:37 45.19615 4.66091 35898 ft 485 kts 62°
2026-05-06 16:38 45.22821 4.74510 35896 ft 485 kts 62°
2026-05-06 16:38 45.26009 4.82869 35897 ft 485 kts 62°
2026-05-06 16:39 45.29206 4.91301 35923 ft 485 kts 62°
2026-05-06 16:39 45.32387 4.99745 35928 ft 484 kts 62°
2026-05-06 16:40 45.35563 5.08175 35910 ft 484 kts 62°
2026-05-06 16:40 45.38746 5.16628 35900 ft 485 kts 62°
2026-05-06 16:41 45.41912 5.25097 35914 ft 485 kts 63°
2026-05-06 16:41 45.45072 5.33581 35915 ft 485 kts 63°
2026-05-06 16:42 45.48361 5.41966 35931 ft 485 kts 55°
2026-05-06 16:42 45.52912 5.49004 35896 ft 484 kts 41°
2026-05-06 16:43 45.57943 5.55398 35899 ft 485 kts 41°
2026-05-06 16:43 45.62969 5.61835 35908 ft 486 kts 41°
2026-05-06 16:44 45.67969 5.68250 35913 ft 486 kts 41°
2026-05-06 16:44 45.73024 5.74762 35918 ft 486 kts 41°
2026-05-06 16:45 45.78059 5.81224 35918 ft 486 kts 41°
2026-05-06 16:45 45.83097 5.87687 35934 ft 486 kts 41°
2026-05-06 16:46 45.88089 5.94125 35915 ft 486 kts 42°
2026-05-06 16:46 45.93112 6.00626 35907 ft 487 kts 42°
2026-05-06 16:47 45.98140 6.07150 35911 ft 488 kts 42°
2026-05-06 16:47 46.03172 6.13698 35931 ft 488 kts 42°
2026-05-06 16:48 46.08153 6.20315 35934 ft 487 kts 47°
2026-05-06 16:48 46.11631 6.26742 35933 ft 485 kts 56°
2026-05-06 16:49 46.15518 6.34695 35931 ft 485 kts 56°
2026-05-06 16:49 46.19408 6.42663 35920 ft 486 kts 56°
2026-05-06 16:50 46.23267 6.50614 35908 ft 487 kts 56°
2026-05-06 16:50 46.27151 6.58643 35918 ft 488 kts 56°
2026-05-06 16:51 46.31035 6.66684 35923 ft 488 kts 56°
2026-05-06 16:51 46.34924 6.74749 35925 ft 488 kts 56°
2026-05-06 16:52 46.38799 6.82814 35928 ft 488 kts 57°
2026-05-06 16:52 46.42669 6.90898 35905 ft 489 kts 57°
2026-05-06 16:53 46.46546 6.99010 35897 ft 490 kts 57°
2026-05-06 16:53 46.50421 7.07150 35899 ft 491 kts 57°
2026-05-06 16:54 46.54290 7.15323 35905 ft 491 kts 57°
2026-05-06 16:54 46.58903 7.22643 35908 ft 493 kts 38°
2026-05-06 16:55 46.64786 7.27703 35899 ft 492 kts 23°
2026-05-06 16:55 46.71000 7.31881 35881 ft 493 kts 24°
2026-05-06 16:55 46.74114 7.33983 35589 ft 493 kts 23°
2026-05-06 16:56 46.77209 7.36079 35759 ft 488 kts 24°
2026-05-06 16:56 46.80228 7.38312 35896 ft 487 kts 31°
2026-05-06 16:56 46.82987 7.41179 35908 ft 487 kts 41°
2026-05-06 16:57 46.87386 7.48576 35907 ft 481 kts 60°
2026-05-06 16:57 46.90457 7.57150 35926 ft 479 kts 66°
2026-05-06 16:58 46.93432 7.65858 35927 ft 478 kts 66°
2026-05-06 16:58 46.96386 7.74562 35934 ft 477 kts 66°
2026-05-06 16:59 46.99321 7.83256 35928 ft 476 kts 66°
2026-05-06 16:59 47.02249 7.91940 35932 ft 475 kts 66°
2026-05-06 17:00 47.05170 8.00624 35910 ft 475 kts 66°
2026-05-06 17:00 47.08079 8.09316 35903 ft 475 kts 66°
2026-05-06 17:01 47.10986 8.18008 35937 ft 474 kts 66°
2026-05-06 17:01 47.13877 8.26695 35920 ft 473 kts 66°
2026-05-06 17:02 47.16755 8.35366 35929 ft 472 kts 66°
2026-05-06 17:02 47.19625 8.44045 35930 ft 471 kts 67°
2026-05-06 17:03 47.22479 8.52723 35932 ft 471 kts 67°
2026-05-06 17:03 47.25328 8.61400 35929 ft 471 kts 67°
2026-05-06 17:04 47.28172 8.70095 35934 ft 471 kts 67°
2026-05-06 17:04 47.31009 8.78790 35916 ft 471 kts 67°
2026-05-06 17:05 47.33815 8.87426 35924 ft 470 kts 67°
2026-05-06 17:05 47.36628 8.96134 35922 ft 470 kts 67°
2026-05-06 17:06 47.39442 9.04848 35912 ft 470 kts 67°
2026-05-06 17:06 47.42254 9.13563 35902 ft 470 kts 67°
2026-05-06 17:07 47.45061 9.22301 35885 ft 470 kts 67°
2026-05-06 17:07 47.47845 9.31035 35888 ft 470 kts 68°
2026-05-06 17:08 47.50623 9.39771 35899 ft 469 kts 68°
2026-05-06 17:08 47.53398 9.48513 35899 ft 469 kts 68°
2026-05-06 17:09 47.56161 9.57262 35906 ft 469 kts 68°
2026-05-06 17:09 47.58133 9.66364 35875 ft 462 kts 85°
2026-05-06 17:10 47.58255 9.75769 35872 ft 455 kts 97°
2026-05-06 17:10 47.57869 9.85209 35866 ft 456 kts 97°
2026-05-06 17:11 47.57096 10.04317 35869 ft 458 kts 97°
2026-05-06 17:12 47.56695 10.13795 35861 ft 459 kts 97°
2026-05-06 17:12 47.56490 10.18529 35063 ft 465 kts 98°
2026-05-06 17:12 47.56273 10.23356 33979 ft 474 kts 98°
2026-05-06 17:12 47.56050 10.28255 32944 ft 478 kts 98°
2026-05-06 17:13 47.55824 10.33179 32009 ft 480 kts 98°
2026-05-06 17:13 47.55599 10.38093 31253 ft 477 kts 98°
2026-05-06 17:13 47.55374 10.42988 30475 ft 476 kts 98°
2026-05-06 17:13 47.55208 10.47855 29916 ft 472 kts 92°
2026-05-06 17:14 47.55660 10.52623 29604 ft 466 kts 78°
2026-05-06 17:14 47.56841 10.56990 29211 ft 462 kts 63°
2026-05-06 17:14 47.58552 10.60989 28635 ft 457 kts 59°
2026-05-06 17:14 47.60291 10.64894 28092 ft 452 kts 59°
2026-05-06 17:15 47.62048 10.68816 27509 ft 448 kts 59°
2026-05-06 17:15 47.63737 10.72591 26968 ft 443 kts 59°
2026-05-06 17:15 47.65429 10.76387 26423 ft 439 kts 59°
2026-05-06 17:15 47.67093 10.80136 25646 ft 432 kts 59°
2026-05-06 17:16 47.68745 10.83871 24614 ft 430 kts 59°
2026-05-06 17:16 47.70339 10.87482 24357 ft 407 kts 59°
2026-05-06 17:16 47.71862 10.90929 23892 ft 393 kts 58°
2026-05-06 17:16 47.73340 10.94282 23409 ft 387 kts 58°
2026-05-06 17:17 47.74805 10.97621 22893 ft 384 kts 59°
2026-05-06 17:17 47.76258 11.00942 22436 ft 384 kts 59°
2026-05-06 17:17 47.77706 11.04253 21990 ft 380 kts 58°
2026-05-06 17:17 47.79142 11.07539 21530 ft 378 kts 59°
2026-05-06 17:18 47.80567 11.10806 21074 ft 376 kts 59°
2026-05-06 17:18 47.81986 11.14056 20619 ft 374 kts 59°
2026-05-06 17:18 47.83400 11.17294 20147 ft 373 kts 59°
2026-05-06 17:18 47.84811 11.20530 19662 ft 372 kts 59°
2026-05-06 17:19 47.86217 11.23762 19188 ft 372 kts 59°
2026-05-06 17:19 47.87626 11.27002 18674 ft 372 kts 59°
2026-05-06 17:19 47.89032 11.30240 18182 ft 372 kts 59°
2026-05-06 17:19 47.90436 11.33485 17633 ft 372 kts 59°
2026-05-06 17:20 47.91841 11.36730 17090 ft 374 kts 58°
2026-05-06 17:20 47.93255 11.40001 16434 ft 377 kts 58°
2026-05-06 17:20 47.94673 11.43282 15795 ft 373 kts 58°
2026-05-06 17:20 47.96066 11.46502 15172 ft 367 kts 58°
2026-05-06 17:21 47.97442 11.49683 14567 ft 363 kts 58°
2026-05-06 17:21 47.98804 11.52841 13957 ft 360 kts 58°
2026-05-06 17:21 48.00155 11.55979 13326 ft 358 kts 58°
2026-05-06 17:21 48.01493 11.59093 12678 ft 354 kts 58°
2026-05-06 17:22 48.02812 11.62168 12174 ft 350 kts 58°
2026-05-06 17:22 48.03677 11.64187 11911 ft 347 kts 58°
2026-05-06 17:22 48.04972 11.67212 11491 ft 344 kts 58°
2026-05-06 17:22 48.06255 11.70213 11069 ft 341 kts 58°
2026-05-06 17:23 48.07527 11.73197 10602 ft 339 kts 58°
2026-05-06 17:23 48.08792 11.76166 10188 ft 337 kts 58°
2026-05-06 17:23 48.10013 11.79027 10038 ft 314 kts 58°
2026-05-06 17:23 48.11163 11.81714 9719 ft 299 kts 58°
2026-05-06 17:24 48.12251 11.84254 9537 ft 280 kts 58°
2026-05-06 17:24 48.13272 11.86643 9222 ft 267 kts 58°
2026-05-06 17:24 48.14260 11.88963 9018 ft 263 kts 58°
2026-05-06 17:24 48.15246 11.91290 9025 ft 265 kts 58°
2026-05-06 17:25 48.16231 11.93621 8978 ft 264 kts 59°
2026-05-06 17:25 48.17210 11.95937 8709 ft 262 kts 58°
2026-05-06 17:25 48.18188 11.98253 8584 ft 264 kts 58°
2026-05-06 17:25 48.19247 12.00470 8329 ft 262 kts 45°
2026-05-06 17:26 48.20593 12.02296 8002 ft 261 kts 40°
2026-05-06 17:26 48.21988 12.04042 7685 ft 261 kts 39°
2026-05-06 17:26 48.23381 12.05777 7384 ft 260 kts 39°
2026-05-06 17:26 48.24764 12.07502 7081 ft 258 kts 40°
2026-05-06 17:27 48.26160 12.09196 6787 ft 258 kts 39°
2026-05-06 17:27 48.27542 12.10847 6662 ft 249 kts 39°
2026-05-06 17:27 48.28960 12.12180 6467 ft 237 kts 17°
2026-05-06 17:27 48.30571 12.12456 6127 ft 232 kts 358°
2026-05-06 17:28 48.32179 12.12338 5726 ft 231 kts 355°
2026-05-06 17:28 48.33764 12.12102 5349 ft 227 kts 344°
2026-05-06 17:28 48.35112 12.10997 5007 ft 219 kts 314°
2026-05-06 17:28 48.36002 12.09236 4775 ft 204 kts 292°
2026-05-06 17:29 48.36384 12.07323 4673 ft 181 kts 275°
2026-05-06 17:29 48.36358 12.05504 4445 ft 171 kts 262°
2026-05-06 17:29 48.36228 12.03741 4197 ft 168 kts 262°
2026-05-06 17:29 48.36100 12.02000 4059 ft 167 kts 263°
2026-05-06 17:30 48.35970 12.00252 3987 ft 169 kts 263°
2026-05-06 17:30 48.35840 11.98512 3814 ft 167 kts 263°
2026-05-06 17:30 48.35711 11.96782 3613 ft 166 kts 263°
2026-05-06 17:30 48.35582 11.95066 3427 ft 164 kts 263°
2026-05-06 17:31 48.35462 11.93460 3203 ft 146 kts 263°
2026-05-06 17:31 48.35352 11.91992 3017 ft 138 kts 263°
2026-05-06 17:31 48.35242 11.90580 2839 ft 135 kts 263°
2026-05-06 17:31 48.35139 11.89187 2690 ft 134 kts 264°
2026-05-06 17:32 48.35038 11.87800 2539 ft 133 kts 262°
2026-05-06 17:32 48.34937 11.86438 2333 ft 133 kts 262°
2026-05-06 17:32 48.34830 11.85035 2097 ft 133 kts 262°
2026-05-06 17:32 48.34727 11.83694 1927 ft 130 kts 262°
2026-05-06 17:33 48.34622 11.82346 1783 ft 130 kts 261°
2026-05-06 17:33 48.34522 11.80983 1619 ft 131 kts 261°
2026-05-06 17:33 48.34422 11.79647 1489 ft 121 kts 261°
2026-05-06 17:33 48.34338 11.78618 1480 ft 75 kts 263°
2026-05-06 17:34 48.34308 11.78188 1482 ft 32 kts 269°
2026-05-06 17:34 48.34346 11.77886 1483 ft 29 kts 291°
2026-05-06 17:34 48.34415 11.77642 1479 ft 15 kts 292°
2026-05-06 17:34 48.34462 11.77496 1485 ft 16 kts 304°
2026-05-06 17:35 48.34567 11.77427 1475 ft 18 kts 354°
2026-05-06 17:35 48.34636 11.77533 1484 ft 15 kts 85°
2026-05-06 17:35 48.34647 11.77686 1480 ft 14 kts 83°
2026-05-06 17:36 48.34674 11.78040 1485 ft 17 kts 83°
2026-05-06 17:36 48.34693 11.78257 1481 ft 25 kts 83°
2026-05-06 17:36 48.34710 11.78508 1476 ft 23 kts 84°
2026-05-06 17:36 48.34728 11.78738 1479 ft 21 kts 83°
2026-05-06 17:37 48.34745 11.78956 1485 ft 20 kts 83°
2026-05-06 17:37 48.34761 11.79156 1485 ft 18 kts 83°
2026-05-06 17:37 48.34775 11.79340 1478 ft 17 kts 83°
2026-05-06 17:37 48.34788 11.79504 1481 ft 11 kts 81°
2026-05-06 17:38 48.34838 11.79561 1483 ft 9 kts 356°
2026-05-06 17:38 48.34897 11.79550 1486 ft 6 kts 353°
2026-05-06 17:38 48.34914 11.79547 1486 ft 0 kts 354°
2026-05-06 17:38 48.34916 11.79547 1486 ft 1 kts 354°
2026-05-06 17:39 48.34928 11.79545 1475 ft 4 kts 354°
2026-05-06 17:39 48.34985 11.79583 1475 ft 10 kts 74°
2026-05-06 17:39 48.35017 11.79663 1482 ft 9 kts 19°
2026-05-06 17:39 48.35077 11.79655 1485 ft 8 kts 353°
2026-05-06 17:40 48.35159 11.79641 1476 ft 13 kts 353°
2026-05-06 17:40 48.35249 11.79626 1478 ft 15 kts 354°
2026-05-06 17:40 48.35353 11.79607 1485 ft 15 kts 353°
2026-05-06 17:40 48.35455 11.79589 1485 ft 15 kts 355°
2026-05-06 17:41 48.35556 11.79572 1483 ft 15 kts 353°
2026-05-06 17:41 48.35679 11.79549 1485 ft 18 kts 352°
2026-05-06 17:41 48.35806 11.79524 1485 ft 13 kts 348°
2026-05-06 17:41 48.35850 11.79418 1474 ft 13 kts 291°
2026-05-06 17:42 48.35852 11.79278 1485 ft 10 kts 263°
2026-05-06 17:42 48.35848 11.79219 1485 ft 0 kts 263°